STARLINK-3311 (50849 NORAD) Tracking and Keplerian Element Data

This shows tracking and keplerian element data for the satellite.

Feedback or suggestion? Click here.




ElementValue
Catalog50849
NameSTARLINK-3311
Epoch Orbit2175
Epoch Day140.58334491
Epoch Year2022
RAAN295.0557
Inclination53.218
Eccentricity0.0002186
Argument of Perigee37.7676
Mean Anonmoly153.7033
Mean Motion15.08861865
Decay Rate-0.00042136
L11 50849U 22001AY 22140.58334491 -.00042136 00000+0 -26432-2 0 9993
L22 50849 53.2180 295.0557 0002186 37.7676 153.7033 15.08861865 21758

Live tracking and technical data element details for STARLINK-3311 (NORAD 50849). STARLINK-3311 can be tracked NOW for your location showing map with azimuth and elevation plus other details from your city location.

Track the satellite on the map from your city or location and see movement details for azimuth, elevation, latitude, longitude, range, height, and movement on the map or in text.







IsCatalogInMostPopularTable: catalog: 50849, numindb: 60
Update: records affected: 1



GetName: 50849 STARLINK-3311

Hit Count: updated at: Sun, 22 May 2022 05:29:48 GMT